Time,TemperatureF,DewpointF,PressureIn,WindDirection,WindDirectionDegrees,WindSpeedMPH,WindSpeedGustMPH,Humidity,HourlyPrecipIn,Conditions,Clouds,dailyrainin,SolarRadiationWatts/m^2,SoftwareType,DateUTC
2013-06-30 00:04:00,64.6,61.3,27.09,NNW,342,1.0,2.0,89,0.00,,,0.00,0,Wunderground v.1.15,2013-06-30 05:04:00,
2013-06-30 00:14:00,64.5,61.5,27.09,NW,321,2.0,3.0,90,0.00,,,0.00,0,Wunderground v.1.15,2013-06-30 05:14:00,
2013-06-30 00:19:00,64.4,61.4,27.09,NNW,338,3.0,3.0,90,0.00,,,0.00,0,Wunderground v.1.15,2013-06-30 05:19:00,
2013-06-30 00:24:00,64.3,61.3,27.09,NNW,339,2.0,3.0,90,0.00,,,0.00,0,Wunderground v.1.15,2013-06-30 05:24:00,
2013-06-30 00:34:00,64.1,61.1,28.85,NNW,340,1.0,1.0,90,0.00,,,0.00,0,Wunderground v.1.15,2013-06-30 05:34:00,
2013-06-30 00:39:00,64.1,61.1,28.85,NNW,340,1.0,1.0,90,0.00,,,0.00,0,Wunderground v.1.15,2013-06-30 05:39:00,
2013-06-30 00:49:00,64.0,61.0,28.85,NNW,337,1.0,1.0,90,0.00,,,0.00,0,Wunderground v.1.15,2013-06-30 05:49:00,
2013-06-30 00:54:00,63.9,60.9,28.85,NNW,337,1.0,1.0,90,0.00,,,0.00,0,Wunderground v.1.15,2013-06-30 05:54:00,
2013-06-30 00:59:00,63.8,60.8,28.85,NNW,336,1.0,1.0,90,0.00,,,0.00,0,Wunderground v.1.15,2013-06-30 05:59:00,
2013-06-30 01:04:00,63.8,61.1,28.85,NNW,336,1.0,1.0,91,0.00,,,0.00,0,Wunderground v.1.15,2013-06-30 06:04:00,
2013-06-30 01:09:00,63.7,61.0,28.85,NNW,336,1.0,1.0,91,0.00,,,0.00,0,Wunderground v.1.15,2013-06-30 06:09:00,
2013-06-30 01:14:00,63.6,60.9,28.85,NNW,336,1.0,1.0,91,0.00,,,0.00,0,Wunderground v.1.15,2013-06-30 06:14:00,
2013-06-30 01:19:00,63.6,60.9,28.85,NNW,336,1.0,1.0,91,0.00,,,0.00,0,Wunderground v.1.15,2013-06-30 06:19:00,
2013-06-30 01:24:00,63.7,61.0,28.85,NNW,336,1.0,2.0,91,0.00,,,0.00,0,Wunderground v.1.15,2013-06-30 06:24:00,
2013-06-30 01:34:00,63.7,61.0,28.62,NNW,336,1.0,1.0,91,0.00,,,0.00,0,Wunderground v.1.15,2013-06-30 06:34:00,
2013-06-30 01:39:00,63.7,61.3,28.62,NNW,336,0.0,0.0,92,0.00,,,0.00,0,Wunderground v.1.15,2013-06-30 06:39:00,
2013-06-30 01:49:00,63.7,61.3,28.62,NNW,336,0.0,0.0,92,0.00,,,0.00,0,Wunderground v.1.15,2013-06-30 06:49:00,
2013-06-30 01:54:00,63.7,61.3,28.62,NNW,336,0.0,0.0,92,0.00,,,0.00,0,Wunderground v.1.15,2013-06-30 06:54:00,
2013-06-30 01:59:00,63.8,61.4,28.62,NNW,336,1.0,1.0,92,0.00,,,0.00,0,Wunderground v.1.15,2013-06-30 06:59:00,
2013-06-30 02:04:00,63.8,61.4,29.83,NNW,337,1.0,2.0,92,0.00,,,0.00,0,Wunderground v.1.15,2013-06-30 07:04:00,
2013-06-30 02:09:00,63.9,61.5,29.44,NNW,336,1.0,1.0,92,0.00,,,0.00,0,Wunderground v.1.15,2013-06-30 07:09:00,
2013-06-30 02:14:00,64.0,61.6,29.25,NNW,336,1.0,1.0,92,0.00,,,0.00,0,Wunderground v.1.15,2013-06-30 07:14:00,
2013-06-30 02:19:00,64.2,61.8,29.25,NNW,335,1.0,1.0,92,0.00,,,0.00,0,Wunderground v.1.15,2013-06-30 07:19:00,
2013-06-30 02:24:00,64.3,61.9,29.25,NNE,21,2.0,3.0,92,0.00,,,0.00,0,Wunderground v.1.15,2013-06-30 07:24:00,
2013-06-30 02:29:00,64.5,61.8,28.49,North,350,3.0,3.0,91,0.00,,,0.00,0,Wunderground v.1.15,2013-06-30 07:29:00,
2013-06-30 02:34:00,64.6,61.9,28.49,North,11,5.0,5.0,91,0.00,,,0.00,0,Wunderground v.1.15,2013-06-30 07:34:00,
2013-06-30 02:39:00,64.7,61.7,28.49,North,355,4.0,4.0,90,0.00,,,0.00,0,Wunderground v.1.15,2013-06-30 07:39:00,
2013-06-30 02:49:00,64.9,61.9,28.19,North,350,4.0,4.0,90,0.00,,,0.00,0,Wunderground v.1.15,2013-06-30 07:49:00,
2013-06-30 02:59:00,64.9,61.6,29.02,North,355,4.0,4.0,89,0.00,,,0.00,0,Wunderground v.1.15,2013-06-30 07:59:00,
2013-06-30 03:04:00,64.9,61.6,29.02,NW,320,4.0,6.0,89,0.00,,,0.00,0,Wunderground v.1.15,2013-06-30 08:04:00,
2013-06-30 03:09:00,64.9,61.6,29.02,NNW,327,5.0,5.0,89,0.00,,,0.00,0,Wunderground v.1.15,2013-06-30 08:09:00,
2013-06-30 03:14:00,64.9,61.6,29.02,North,360,5.0,7.0,89,0.00,,,0.00,0,Wunderground v.1.15,2013-06-30 08:14:00,
2013-06-30 03:19:00,64.8,61.5,29.02,North,355,5.0,5.0,89,0.00,,,0.00,0,Wunderground v.1.15,2013-06-30 08:19:00,
2013-06-30 03:24:00,64.8,61.5,28.25,NNW,331,4.0,6.0,89,0.00,,,0.00,0,Wunderground v.1.15,2013-06-30 08:24:00,
2013-06-30 03:29:00,64.7,61.4,28.25,NNW,343,5.0,5.0,89,0.00,,,0.00,0,Wunderground v.1.15,2013-06-30 08:29:00,
2013-06-30 03:38:00,64.7,61.4,28.25,NNW,338,5.0,5.0,89,0.00,,,0.00,0,Wunderground v.1.15,2013-06-30 08:38:00,
2013-06-30 03:44:00,64.7,61.4,28.45,NNW,346,5.0,5.0,89,0.00,,,0.00,0,Wunderground v.1.15,2013-06-30 08:44:00,
2013-06-30 03:49:00,64.6,61.3,28.14,North,360,4.0,4.0,89,0.00,,,0.00,0,Wunderground v.1.15,2013-06-30 08:49:00,
2013-06-30 03:54:00,64.5,61.2,28.14,NNW,346,4.0,4.0,89,0.00,,,0.00,0,Wunderground v.1.15,2013-06-30 08:54:00,
2013-06-30 03:59:00,64.4,61.1,28.14,NNW,334,4.0,4.0,89,0.00,,,0.00,0,Wunderground v.1.15,2013-06-30 08:59:00,
2013-06-30 04:04:00,64.2,60.9,28.68,North,355,4.0,4.0,89,0.00,,,0.00,0,Wunderground v.1.15,2013-06-30 09:04:00,
2013-06-30 04:09:00,64.0,60.7,29.14,North,349,4.0,4.0,89,0.00,,,0.00,0,Wunderground v.1.15,2013-06-30 09:09:00,
2013-06-30 04:14:00,63.9,60.6,28.35,NNW,332,3.0,4.0,89,0.00,,,0.00,0,Wunderground v.1.15,2013-06-30 09:14:00,
2013-06-30 04:24:00,63.8,60.8,28.35,NNW,338,4.0,4.0,90,0.00,,,0.00,0,Wunderground v.1.15,2013-06-30 09:24:00,
2013-06-30 04:29:00,63.7,60.7,28.35,NNW,344,4.0,6.0,90,0.00,,,0.00,0,Wunderground v.1.15,2013-06-30 09:29:00,
2013-06-30 04:34:00,63.7,60.7,28.35,NE,34,5.0,7.0,90,0.00,,,0.00,0,Wunderground v.1.15,2013-06-30 09:34:00,
2013-06-30 04:39:00,63.7,60.7,28.35,NNW,348,5.0,6.0,90,0.00,,,0.00,0,Wunderground v.1.15,2013-06-30 09:39:00,
2013-06-30 04:48:00,63.5,60.5,28.35,NNW,345,4.0,4.0,90,0.00,,,0.00,0,Wunderground v.1.15,2013-06-30 09:48:00,
2013-06-30 04:53:00,63.4,60.4,28.35,NNW,348,3.0,5.0,90,0.00,,,0.00,0,Wunderground v.1.15,2013-06-30 09:53:00,
2013-06-30 04:58:00,63.3,60.3,28.35,NNW,328,4.0,4.0,90,0.00,,,0.00,0,Wunderground v.1.15,2013-06-30 09:58:00,
2013-06-30 05:03:00,63.3,60.3,28.35,North,355,6.0,6.0,90,0.00,,,0.00,0,Wunderground v.1.15,2013-06-30 10:03:00,
2013-06-30 05:08:00,63.2,60.2,28.78,North,5,5.0,8.0,90,0.00,,,0.00,0,Wunderground v.1.15,2013-06-30 10:08:00,
2013-06-30 05:13:00,63.2,60.2,28.09,NW,326,5.0,8.0,90,0.00,,,0.00,0,Wunderground v.1.15,2013-06-30 10:13:00,
2013-06-30 05:23:00,63.0,60.0,28.09,North,355,5.0,5.0,90,0.00,,,0.00,0,Wunderground v.1.15,2013-06-30 10:23:00,
2013-06-30 05:28:00,62.9,60.2,28.09,North,355,5.0,5.0,91,0.00,,,0.00,0,Wunderground v.1.15,2013-06-30 10:28:00,
2013-06-30 05:33:00,62.8,60.1,28.09,North,350,5.0,6.0,91,0.00,,,0.00,0,Wunderground v.1.15,2013-06-30 10:33:00,
2013-06-30 05:38:00,62.7,60.0,28.09,NNW,346,5.0,5.0,91,0.00,,,0.00,0,Wunderground v.1.15,2013-06-30 10:38:00,
2013-06-30 05:48:00,62.6,59.9,28.09,WNW,303,4.0,4.0,91,0.00,,,0.00,0,Wunderground v.1.15,2013-06-30 10:48:00,
2013-06-30 05:53:00,62.5,59.8,28.09,NNE,29,4.0,4.0,91,0.00,,,0.00,0,Wunderground v.1.15,2013-06-30 10:53:00,
2013-06-30 05:58:00,62.4,59.7,28.09,NNW,348,4.0,4.0,91,0.00,,,0.00,5,Wunderground v.1.15,2013-06-30 10:58:00,
2013-06-30 06:03:00,62.4,59.7,28.09,NNW,335,4.0,4.0,91,0.00,,,0.00,7,Wunderground v.1.15,2013-06-30 11:03:00,
2013-06-30 06:13:00,62.2,59.5,27.10,NNE,22,2.0,3.0,91,0.00,,,0.00,23,Wunderground v.1.15,2013-06-30 11:13:00,
2013-06-30 06:18:00,62.2,59.8,26.97,North,5,2.0,2.0,92,0.00,,,0.00,33,Wunderground v.1.15,2013-06-30 11:18:00,
2013-06-30 06:23:00,62.3,59.9,26.97,North,5,2.0,2.0,92,0.00,,,0.00,47,Wunderground v.1.15,2013-06-30 11:23:00,
2013-06-30 06:28:00,62.4,60.0,26.97,North,5,2.0,2.0,92,0.00,,,0.00,49,Wunderground v.1.15,2013-06-30 11:28:00,
2013-06-30 06:33:00,62.4,60.0,26.97,NNW,327,2.0,4.0,92,0.00,,,0.00,32,Wunderground v.1.15,2013-06-30 11:33:00,
2013-06-30 06:43:00,62.5,59.8,28.43,NW,319,2.0,2.0,91,0.00,,,0.00,23,Wunderground v.1.15,2013-06-30 11:43:00,
2013-06-30 06:53:00,62.5,59.8,29.18,NW,317,2.0,2.0,91,0.00,,,0.00,26,Wunderground v.1.15,2013-06-30 11:53:00,
2013-06-30 06:58:00,62.5,59.8,29.18,NNW,336,2.0,2.0,91,0.00,,,0.00,30,Wunderground v.1.15,2013-06-30 11:58:00,
2013-06-30 07:03:00,62.5,59.8,29.18,North,355,3.0,3.0,91,0.00,,,0.00,32,Wunderground v.1.15,2013-06-30 12:03:00,
2013-06-30 07:08:00,62.5,59.8,28.76,NNW,330,3.0,3.0,91,0.00,,,0.00,37,Wunderground v.1.15,2013-06-30 12:08:00,
2013-06-30 07:13:00,62.5,59.8,28.76,NNW,338,3.0,3.0,91,0.00,,,0.00,42,Wunderground v.1.15,2013-06-30 12:13:00,
2013-06-30 07:23:00,62.6,59.9,28.76,NNW,348,3.0,4.0,91,0.00,,,0.00,51,Wunderground v.1.15,2013-06-30 12:23:00,
2013-06-30 07:28:00,62.6,59.9,28.76,NNW,337,3.0,3.0,91,0.00,,,0.00,76,Wunderground v.1.15,2013-06-30 12:28:00,
2013-06-30 07:33:00,62.7,60.0,28.76,NW,310,3.0,7.0,91,0.00,,,0.00,113,Wunderground v.1.15,2013-06-30 12:33:00,
2013-06-30 07:38:00,63.0,60.6,27.52,North,355,4.0,4.0,92,0.00,,,0.00,336,Wunderground v.1.15,2013-06-30 12:38:00,
2013-06-30 07:43:00,63.7,61.3,27.52,NNW,344,3.0,10.0,92,0.00,,,0.00,202,Wunderground v.1.15,2013-06-30 12:43:00,
2013-06-30 07:48:00,64.3,61.3,27.52,NNW,340,4.0,4.0,90,0.00,,,0.00,144,Wunderground v.1.15,2013-06-30 12:48:00,
2013-06-30 07:53:00,64.7,61.4,27.52,NNW,337,4.0,4.0,89,0.00,,,0.00,174,Wunderground v.1.15,2013-06-30 12:53:00,
2013-06-30 08:03:00,65.1,61.5,29.37,NNW,337,5.0,10.0,88,0.00,,,0.00,374,Wunderground v.1.15,2013-06-30 13:03:00,
2013-06-30 08:08:00,65.4,61.4,29.37,NW,325,5.0,5.0,87,0.00,,,0.00,207,Wunderground v.1.15,2013-06-30 13:08:00,
2013-06-30 08:13:00,65.5,61.2,29.37,NW,315,6.0,6.0,86,0.00,,,0.00,218,Wunderground v.1.15,2013-06-30 13:13:00,
2013-06-30 08:18:00,65.7,61.7,29.37,NNE,17,5.0,5.0,87,0.00,,,0.00,290,Wunderground v.1.15,2013-06-30 13:18:00,
2013-06-30 08:23:00,66.2,61.9,29.37,WNW,301,5.0,5.0,86,0.00,,,0.00,258,Wunderground v.1.15,2013-06-30 13:23:00,
2013-06-30 08:28:00,66.3,61.7,29.05,NW,324,5.0,5.0,85,0.00,,,0.00,160,Wunderground v.1.15,2013-06-30 13:28:00,
2013-06-30 08:38:00,65.9,61.3,29.37,NNW,339,5.0,5.0,85,0.00,,,0.00,172,Wunderground v.1.15,2013-06-30 13:38:00,
2013-06-30 08:43:00,65.8,61.2,29.37,North,9,6.0,6.0,85,0.00,,,0.00,149,Wunderground v.1.15,2013-06-30 13:43:00,
2013-06-30 08:53:00,65.8,61.2,29.37,NNW,348,4.0,5.0,85,0.00,,,0.00,248,Wunderground v.1.15,2013-06-30 13:53:00,
2013-06-30 09:03:00,66.7,61.7,29.37,NNW,348,5.0,8.0,84,0.00,,,0.00,214,Wunderground v.1.15,2013-06-30 14:03:00,
2013-06-30 09:08:00,67.1,61.8,29.37,NE,44,5.0,5.0,83,0.00,,,0.00,612,Wunderground v.1.15,2013-06-30 14:08:00,
2013-06-30 09:13:00,67.5,62.2,29.61,NNW,336,6.0,6.0,83,0.00,,,0.00,652,Wunderground v.1.15,2013-06-30 14:13:00,
2013-06-30 09:23:00,68.0,62.3,29.61,NNW,348,6.0,7.0,82,0.00,,,0.00,236,Wunderground v.1.15,2013-06-30 14:23:00,
2013-06-30 09:33:00,69.6,63.5,29.61,NNE,16,5.0,7.0,81,0.00,,,0.00,650,Wunderground v.1.15,2013-06-30 14:33:00,
2013-06-30 09:43:00,69.6,62.8,29.61,NNW,329,6.0,6.0,79,0.00,,,0.00,686,Wunderground v.1.15,2013-06-30 14:43:00,
2013-06-30 09:48:00,70.0,62.8,29.44,NE,44,5.0,5.0,78,0.00,,,0.00,686,Wunderground v.1.15,2013-06-30 14:48:00,
2013-06-30 09:53:00,70.0,62.5,29.44,NE,39,6.0,6.0,77,0.00,,,0.00,768,Wunderground v.1.15,2013-06-30 14:53:00,
2013-06-30 09:58:00,70.0,62.8,29.44,North,11,6.0,6.0,78,0.00,,,0.00,724,Wunderground v.1.15,2013-06-30 14:58:00,
2013-06-30 10:08:00,71.1,63.1,29.44,ENE,73,5.0,5.0,76,0.00,,,0.00,740,Wunderground v.1.15,2013-06-30 15:08:00,
2013-06-30 10:13:00,71.8,63.1,29.44,NW,318,4.0,8.0,74,0.00,,,0.00,188,Wunderground v.1.15,2013-06-30 15:13:00,
2013-06-30 10:23:00,71.7,62.6,29.80,NNE,23,7.0,7.0,73,0.00,,,0.00,768,Wunderground v.1.15,2013-06-30 15:23:00,
2013-06-30 10:33:00,72.4,62.5,29.61,North,360,6.0,8.0,71,0.00,,,0.00,951,Wunderground v.1.15,2013-06-30 15:33:00,
2013-06-30 10:38:00,72.8,62.8,29.85,North,355,6.0,6.0,71,0.00,,,0.00,914,Wunderground v.1.15,2013-06-30 15:38:00,
2013-06-30 10:43:00,72.6,62.7,29.85,North,5,6.0,6.0,71,0.00,,,0.00,879,Wunderground v.1.15,2013-06-30 15:43:00,
2013-06-30 10:48:00,72.6,61.8,29.42,NNW,342,6.0,9.0,69,0.00,,,0.00,397,Wunderground v.1.15,2013-06-30 15:48:00,
2013-06-30 10:53:00,72.2,62.7,29.42,North,360,6.0,12.0,72,0.00,,,0.00,176,Wunderground v.1.15,2013-06-30 15:53:00,
2013-06-30 10:58:00,72.0,61.7,29.42,North,5,6.0,7.0,70,0.00,,,0.00,188,Wunderground v.1.15,2013-06-30 15:58:00,
2013-06-30 11:08:00,73.6,63.2,29.42,NNW,327,5.0,5.0,70,0.00,,,0.00,744,Wunderground v.1.15,2013-06-30 16:08:00,
2013-06-30 11:13:00,73.9,62.7,29.42,North,355,6.0,7.0,68,0.00,,,0.00,737,Wunderground v.1.15,2013-06-30 16:13:00,
2013-06-30 11:18:00,74.1,62.4,29.42,North,355,6.0,10.0,67,0.00,,,0.00,457,Wunderground v.1.15,2013-06-30 16:18:00,
2013-06-30 11:23:00,74.1,62.4,29.42,NNW,348,6.0,10.0,67,0.00,,,0.00,269,Wunderground v.1.15,2013-06-30 16:23:00,
2013-06-30 11:28:00,74.1,63.3,29.42,NNW,331,6.0,6.0,69,0.00,,,0.00,304,Wunderground v.1.15,2013-06-30 16:28:00,
2013-06-30 11:33:00,74.2,62.1,29.42,NE,53,6.0,6.0,66,0.00,,,0.00,288,Wunderground v.1.15,2013-06-30 16:33:00,
2013-06-30 11:38:00,73.8,62.2,29.41,North,355,7.0,8.0,67,0.00,,,0.00,1162,Wunderground v.1.15,2013-06-30 16:38:00,
2013-06-30 11:42:00,73.9,62.2,29.41,North,5,7.0,8.0,67,0.00,,,0.00,411,Wunderground v.1.15,2013-06-30 16:42:00,
2013-06-30 11:47:00,74.1,62.4,29.41,NNE,12,6.0,6.0,67,0.00,,,0.00,167,Wunderground v.1.15,2013-06-30 16:47:00,
2013-06-30 11:52:00,73.2,61.2,29.41,NNW,331,7.0,7.0,66,0.00,,,0.00,158,Wunderground v.1.15,2013-06-30 16:52:00,
2013-06-30 11:57:00,72.6,61.8,29.41,NNE,20,6.0,6.0,69,0.00,,,0.00,308,Wunderground v.1.15,2013-06-30 16:57:00,
2013-06-30 12:02:00,73.2,62.4,29.41,NE,42,7.0,8.0,69,0.00,,,0.00,1032,Wunderground v.1.15,2013-06-30 17:02:00,
2013-06-30 12:08:00,73.9,61.8,29.41,NW,309,7.0,7.0,66,0.00,,,0.00,230,Wunderground v.1.15,2013-06-30 17:08:00,
2013-06-30 12:13:00,73.4,61.3,29.11,NE,34,7.0,7.0,66,0.00,,,0.00,185,Wunderground v.1.15,2013-06-30 17:13:00,
2013-06-30 12:18:00,72.9,60.9,29.11,North,5,7.0,7.0,66,0.00,,,0.00,244,Wunderground v.1.15,2013-06-30 17:18:00,
2013-06-30 12:27:00,74.6,61.6,29.11,North,9,7.0,7.0,64,0.00,,,0.00,758,Wunderground v.1.15,2013-06-30 17:27:00,
2013-06-30 12:32:00,75.4,61.9,29.11,NW,320,8.0,8.0,63,0.00,,,0.00,1067,Wunderground v.1.15,2013-06-30 17:32:00,
2013-06-30 12:37:00,75.0,61.5,29.11,North,355,8.0,8.0,63,0.00,,,0.00,169,Wunderground v.1.15,2013-06-30 17:37:00,
2013-06-30 12:47:00,74.1,61.1,29.14,NE,54,8.0,8.0,64,0.00,,,0.00,394,Wunderground v.1.15,2013-06-30 17:47:00,
2013-06-30 12:52:00,75.0,62.0,28.47,North,360,7.0,11.0,64,0.00,,,0.00,306,Wunderground v.1.15,2013-06-30 17:52:00,
2013-06-30 12:57:00,75.0,59.7,28.47,NNE,24,8.0,8.0,59,0.00,,,0.00,1206,Wunderground v.1.15,2013-06-30 17:57:00,
2013-06-30 13:02:00,75.4,61.0,28.47,NE,41,8.0,8.0,61,0.00,,,0.00,299,Wunderground v.1.15,2013-06-30 18:02:00,
2013-06-30 13:08:00,74.8,61.4,28.47,NNE,14,8.0,9.0,63,0.00,,,0.00,309,Wunderground v.1.15,2013-06-30 18:08:00,
2013-06-30 13:13:00,74.8,60.9,28.47,NNW,343,8.0,9.0,62,0.00,,,0.00,977,Wunderground v.1.15,2013-06-30 18:13:00,
2013-06-30 13:18:00,75.6,60.3,28.47,North,349,8.0,8.0,59,0.00,,,0.00,1118,Wunderground v.1.15,2013-06-30 18:18:00,
2013-06-30 13:23:00,76.0,60.2,28.47,NE,34,7.0,14.0,58,0.00,,,0.00,251,Wunderground v.1.15,2013-06-30 18:23:00,
2013-06-30 13:28:00,75.0,60.2,28.47,NNE,29,7.0,10.0,60,0.00,,,0.00,186,Wunderground v.1.15,2013-06-30 18:28:00,
2013-06-30 13:32:00,74.3,60.4,28.47,North,5,8.0,11.0,62,0.00,,,0.00,244,Wunderground v.1.15,2013-06-30 18:32:00,
2013-06-30 13:37:00,74.3,60.9,28.47,NE,45,8.0,8.0,63,0.00,,,0.00,1076,Wunderground v.1.15,2013-06-30 18:37:00,
2013-06-30 13:47:00,75.9,60.5,28.22,NNE,19,8.0,11.0,59,0.00,,,0.00,1137,Wunderground v.1.15,2013-06-30 18:47:00,
2013-06-30 13:52:00,76.0,60.6,28.22,WNW,303,9.0,11.0,59,0.00,,,0.00,1046,Wunderground v.1.15,2013-06-30 18:52:00,
2013-06-30 13:57:00,76.4,60.0,28.22,NE,34,9.0,11.0,57,0.00,,,0.00,183,Wunderground v.1.15,2013-06-30 18:57:00,
2013-06-30 14:02:00,76.1,60.2,28.22,ENE,57,9.0,11.0,58,0.00,,,0.00,1025,Wunderground v.1.15,2013-06-30 19:02:00,
2013-06-30 14:12:00,76.8,60.4,28.22,NW,310,8.0,14.0,57,0.00,,,0.00,241,Wunderground v.1.15,2013-06-30 19:12:00,
2013-06-30 14:17:00,76.3,60.4,29.45,NNE,30,8.0,8.0,58,0.00,,,0.00,258,Wunderground v.1.15,2013-06-30 19:17:00,
2013-06-30 14:27:00,75.3,60.0,28.19,NE,42,7.0,7.0,59,0.00,,,0.00,332,Wunderground v.1.15,2013-06-30 19:27:00,
2013-06-30 14:32:00,75.2,60.4,28.19,East,84,7.0,7.0,60,0.00,,,0.00,302,Wunderground v.1.15,2013-06-30 19:32:00,
2013-06-30 14:37:00,75.8,60.4,29.08,NNW,340,8.0,8.0,59,0.00,,,0.00,1165,Wunderground v.1.15,2013-06-30 19:37:00,
2013-06-30 14:42:00,76.8,58.9,29.08,North,355,9.0,14.0,54,0.00,,,0.00,332,Wunderground v.1.15,2013-06-30 19:42:00,
2013-06-30 14:47:00,77.0,60.6,27.39,North,5,9.0,11.0,57,0.00,,,0.00,1151,Wunderground v.1.15,2013-06-30 19:47:00,
2013-06-30 14:52:00,77.1,60.2,27.81,NNE,28,9.0,11.0,56,0.00,,,0.00,1165,Wunderground v.1.15,2013-06-30 19:52:00,
2013-06-30 15:02:00,75.9,59.6,27.07,NE,38,9.0,9.0,57,0.00,,,0.00,439,Wunderground v.1.15,2013-06-30 20:02:00,
2013-06-30 15:12:00,76.9,60.5,27.07,NNE,25,7.0,13.0,57,0.00,,,0.00,1071,Wunderground v.1.15,2013-06-30 20:12:00,
2013-06-30 15:17:00,77.5,60.1,27.07,NE,35,8.0,8.0,55,0.00,,,0.00,807,Wunderground v.1.15,2013-06-30 20:17:00,
2013-06-30 15:22:00,77.1,60.7,27.07,NNE,30,8.0,8.0,57,0.00,,,0.00,473,Wunderground v.1.15,2013-06-30 20:22:00,
2013-06-30 15:27:00,77.1,59.7,27.07,NE,34,9.0,11.0,55,0.00,,,0.00,1030,Wunderground v.1.15,2013-06-30 20:27:00,
2013-06-30 15:32:00,77.2,60.8,23.70,NE,40,9.0,12.0,57,0.00,,,0.00,469,Wunderground v.1.15,2013-06-30 20:32:00,
2013-06-30 15:37:00,76.6,60.2,23.70,NE,41,9.0,13.0,57,0.00,,,0.00,330,Wunderground v.1.15,2013-06-30 20:37:00,
2013-06-30 15:42:00,76.0,61.1,23.70,NE,51,9.0,13.0,60,0.00,,,0.00,557,Wunderground v.1.15,2013-06-30 20:42:00,
2013-06-30 15:47:00,76.1,61.2,23.70,ENE,57,8.0,8.0,60,0.00,,,0.00,399,Wunderground v.1.15,2013-06-30 20:47:00,
2013-06-30 15:52:00,76.0,60.2,23.70,East,80,7.0,8.0,58,0.00,,,0.00,345,Wunderground v.1.15,2013-06-30 20:52:00,
2013-06-30 15:57:00,75.7,58.9,23.70,ENE,76,9.0,13.0,56,0.00,,,0.00,371,Wunderground v.1.15,2013-06-30 20:57:00,
2013-06-30 16:02:00,75.5,59.7,23.70,NE,38,8.0,13.0,58,0.00,,,0.00,432,Wunderground v.1.15,2013-06-30 21:02:00,
2013-06-30 16:12:00,75.4,60.5,23.70,NNE,28,8.0,9.0,60,0.00,,,0.00,352,Wunderground v.1.15,2013-06-30 21:12:00,
2013-06-30 16:22:00,75.6,61.7,23.70,NE,55,5.0,6.0,62,0.00,,,0.00,401,Wunderground v.1.15,2013-06-30 21:22:00,
2013-06-30 16:27:00,76.0,62.0,23.70,NE,42,4.0,11.0,62,0.00,,,0.00,420,Wunderground v.1.15,2013-06-30 21:27:00,
2013-06-30 16:33:00,76.0,62.0,23.70,North,5,5.0,11.0,62,0.00,,,0.00,497,Wunderground v.1.15,2013-06-30 21:33:00,
2013-06-30 16:38:00,76.4,62.0,23.70,NE,44,6.0,9.0,61,0.00,,,0.00,612,Wunderground v.1.15,2013-06-30 21:38:00,
2013-06-30 16:48:00,76.4,60.0,26.18,North,5,8.0,8.0,57,0.00,,,0.00,744,Wunderground v.1.15,2013-06-30 21:48:00,
2013-06-30 16:58:00,76.5,59.6,26.18,NE,36,7.0,9.0,56,0.00,,,0.00,318,Wunderground v.1.15,2013-06-30 21:58:00,
2013-06-30 17:03:00,75.9,61.0,26.40,NE,53,8.0,9.0,60,0.00,,,0.00,225,Wunderground v.1.15,2013-06-30 22:03:00,
2013-06-30 17:08:00,75.2,60.4,26.40,ENE,57,8.0,11.0,60,0.00,,,0.00,151,Wunderground v.1.15,2013-06-30 22:08:00,
2013-06-30 17:18:00,74.5,61.1,26.40,NNE,33,7.0,10.0,63,0.00,,,0.00,225,Wunderground v.1.15,2013-06-30 22:18:00,
2013-06-30 17:23:00,75.0,60.6,26.40,ENE,62,8.0,14.0,61,0.00,,,0.00,381,Wunderground v.1.15,2013-06-30 22:23:00,
2013-06-30 17:28:00,75.1,60.3,26.40,NE,48,9.0,11.0,60,0.00,,,0.00,455,Wunderground v.1.15,2013-06-30 22:28:00,
2013-06-30 17:33:00,74.9,60.1,26.40,NE,51,10.0,12.0,60,0.00,,,0.00,480,Wunderground v.1.15,2013-06-30 22:33:00,
2013-06-30 17:38:00,75.1,60.7,26.40,NE,36,9.0,12.0,61,0.00,,,0.00,621,Wunderground v.1.15,2013-06-30 22:38:00,
2013-06-30 17:43:00,75.3,61.4,26.37,North,355,7.0,12.0,62,0.00,,,0.00,432,Wunderground v.1.15,2013-06-30 22:43:00,
2013-06-30 17:48:00,75.2,60.4,26.37,NE,40,7.0,7.0,60,0.00,,,0.00,552,Wunderground v.1.15,2013-06-30 22:48:00,
2013-06-30 17:58:00,75.2,61.3,26.37,NNW,339,7.0,7.0,62,0.00,,,0.00,483,Wunderground v.1.15,2013-06-30 22:58:00,
2013-06-30 18:03:00,75.4,61.9,26.37,North,355,6.0,7.0,63,0.00,,,0.00,476,Wunderground v.1.15,2013-06-30 23:03:00,
2013-06-30 18:08:00,75.5,62.5,26.07,NNE,19,6.0,10.0,64,0.00,,,0.00,480,Wunderground v.1.15,2013-06-30 23:08:00,
2013-06-30 18:13:00,75.3,61.8,26.07,NE,46,7.0,10.0,63,0.00,,,0.00,434,Wunderground v.1.15,2013-06-30 23:13:00,
2013-06-30 18:18:00,74.9,61.5,26.07,NE,44,8.0,8.0,63,0.00,,,0.00,381,Wunderground v.1.15,2013-06-30 23:18:00,
2013-06-30 18:28:00,74.5,60.6,26.07,NNE,26,8.0,8.0,62,0.00,,,0.00,336,Wunderground v.1.15,2013-06-30 23:28:00,
2013-06-30 18:33:00,74.5,61.1,26.07,NNE,21,7.0,8.0,63,0.00,,,0.00,315,Wunderground v.1.15,2013-06-30 23:33:00,
2013-06-30 18:38:00,74.4,61.0,25.79,NE,51,6.0,6.0,63,0.00,,,0.00,297,Wunderground v.1.15,2013-06-30 23:38:00,
2013-06-30 18:48:00,74.5,61.5,25.79,NNE,22,5.0,7.0,64,0.00,,,0.00,330,Wunderground v.1.15,2013-06-30 23:48:00,
2013-06-30 18:53:00,74.6,61.6,25.79,NNE,17,5.0,7.0,64,0.00,,,0.00,320,Wunderground v.1.15,2013-06-30 23:53:00,
2013-06-30 18:58:00,74.3,61.3,25.79,NNE,25,6.0,6.0,64,0.00,,,0.00,206,Wunderground v.1.15,2013-06-30 23:58:00,
2013-06-30 19:08:00,73.9,60.5,25.79,NE,40,7.0,7.0,63,0.00,,,0.00,236,Wunderground v.1.15,2013-07-01 00:08:00,
2013-06-30 19:13:00,73.8,60.4,25.79,NE,45,7.0,7.0,63,0.00,,,0.00,190,Wunderground v.1.15,2013-07-01 00:13:00,
2013-06-30 19:18:00,73.6,60.2,25.79,NE,54,8.0,8.0,63,0.00,,,0.00,125,Wunderground v.1.15,2013-07-01 00:18:00,
2013-06-30 19:28:00,73.4,60.0,25.77,ENE,64,7.0,7.0,63,0.00,,,0.00,132,Wunderground v.1.15,2013-07-01 00:28:00,
2013-06-30 19:33:00,73.3,60.4,25.77,NNW,331,7.0,7.0,64,0.00,,,0.00,185,Wunderground v.1.15,2013-07-01 00:33:00,
2013-06-30 19:42:00,73.4,60.5,25.77,NNE,33,6.0,10.0,64,0.00,,,0.00,146,Wunderground v.1.15,2013-07-01 00:42:00,
2013-06-30 19:47:00,73.2,60.3,25.77,NNE,33,6.0,7.0,64,0.00,,,0.00,109,Wunderground v.1.15,2013-07-01 00:47:00,
2013-06-30 19:52:00,73.1,60.6,25.77,NNE,19,6.0,7.0,65,0.00,,,0.00,79,Wunderground v.1.15,2013-07-01 00:52:00,
2013-06-30 20:02:00,72.4,60.8,25.77,NNE,19,3.0,6.0,67,0.00,,,0.00,47,Wunderground v.1.15,2013-07-01 01:02:00,
2013-06-30 20:07:00,72.2,61.0,25.77,NNE,23,2.0,2.0,68,0.00,,,0.00,47,Wunderground v.1.15,2013-07-01 01:07:00,
2013-06-30 20:13:00,71.9,61.2,26.01,NNE,22,2.0,3.0,69,0.00,,,0.00,42,Wunderground v.1.15,2013-07-01 01:13:00,
2013-06-30 20:23:00,71.7,61.0,26.01,NNE,28,3.0,3.0,69,0.00,,,0.00,33,Wunderground v.1.15,2013-07-01 01:23:00,
2013-06-30 20:28:00,71.6,60.9,26.01,NE,35,3.0,3.0,69,0.00,,,0.00,25,Wunderground v.1.15,2013-07-01 01:28:00,
2013-06-30 20:33:00,71.4,61.1,26.01,NNE,23,2.0,4.0,70,0.00,,,0.00,18,Wunderground v.1.15,2013-07-01 01:33:00,
2013-06-30 20:38:00,71.3,61.0,26.01,NE,35,2.0,2.0,70,0.00,,,0.00,12,Wunderground v.1.15,2013-07-01 01:38:00,
2013-06-30 20:43:00,71.2,61.3,26.01,NNE,25,2.0,2.0,71,0.00,,,0.00,7,Wunderground v.1.15,2013-07-01 01:43:00,
2013-06-30 20:48:00,70.9,61.0,26.01,NNE,24,2.0,2.0,71,0.00,,,0.00,0,Wunderground v.1.15,2013-07-01 01:48:00,
2013-06-30 20:57:00,70.8,60.9,26.02,NNE,32,2.0,2.0,71,0.00,,,0.00,0,Wunderground v.1.15,2013-07-01 01:57:00,
2013-06-30 21:03:00,70.7,60.8,26.02,NNE,30,2.0,2.0,71,0.00,,,0.00,0,Wunderground v.1.15,2013-07-01 02:03:00,
2013-06-30 21:12:00,70.5,60.6,26.02,NNE,29,1.0,2.0,71,0.00,,,0.00,0,Wunderground v.1.15,2013-07-01 02:12:00,
2013-06-30 21:17:00,70.5,60.6,26.02,NE,39,1.0,1.0,71,0.00,,,0.00,0,Wunderground v.1.15,2013-07-01 02:17:00,
2013-06-30 21:27:00,70.4,60.5,26.02,NNE,32,2.0,4.0,71,0.00,,,0.00,0,Wunderground v.1.15,2013-07-01 02:27:00,
2013-06-30 21:32:00,70.4,60.5,26.02,NNE,32,2.0,4.0,71,0.00,,,0.00,0,Wunderground v.1.15,2013-07-01 02:32:00,
2013-06-30 21:37:00,70.4,60.5,26.02,NNE,32,2.0,3.0,71,0.00,,,0.00,0,Wunderground v.1.15,2013-07-01 02:37:00,
2013-06-30 21:42:00,70.4,60.5,26.02,NNE,28,2.0,3.0,71,0.00,,,0.00,0,Wunderground v.1.15,2013-07-01 02:42:00,
2013-06-30 21:47:00,70.3,60.4,26.02,NNE,28,1.0,1.0,71,0.00,,,0.00,0,Wunderground v.1.15,2013-07-01 02:47:00,
2013-06-30 21:52:00,70.1,60.7,26.02,NNE,24,1.0,1.0,72,0.00,,,0.00,0,Wunderground v.1.15,2013-07-01 02:52:00,
2013-06-30 21:57:00,69.8,60.8,26.02,NNE,24,1.0,3.0,73,0.00,,,0.00,0,Wunderground v.1.15,2013-07-01 02:57:00,
2013-06-30 22:02:00,69.7,60.7,26.02,NNE,24,1.0,3.0,73,0.00,,,0.00,0,Wunderground v.1.15,2013-07-01 03:02:00,
2013-06-30 22:07:00,69.5,60.5,26.02,NNE,24,1.0,1.0,73,0.00,,,0.00,0,Wunderground v.1.15,2013-07-01 03:07:00,
2013-06-30 22:12:00,69.4,60.8,26.02,NNE,24,1.0,1.0,74,0.00,,,0.00,0,Wunderground v.1.15,2013-07-01 03:12:00,
2013-06-30 22:17:00,69.3,60.7,21.21,NNE,24,1.0,2.0,74,0.00,,,0.00,0,Wunderground v.1.15,2013-07-01 03:17:00,
2013-06-30 22:22:00,69.2,60.6,21.21,NNE,22,1.0,2.0,74,0.00,,,0.00,0,Wunderground v.1.15,2013-07-01 03:22:00,
2013-06-30 22:27:00,69.0,60.7,20.94,NNE,22,1.0,1.0,75,0.00,,,0.00,0,Wunderground v.1.15,2013-07-01 03:27:00,
2013-06-30 22:32:00,68.8,60.6,22.50,NNE,14,1.0,1.0,75,0.00,,,0.00,0,Wunderground v.1.15,2013-07-01 03:32:00,
2013-06-30 22:42:00,68.9,60.6,22.50,North,11,1.0,3.0,75,0.00,,,0.00,0,Wunderground v.1.15,2013-07-01 03:42:00,
2013-06-30 22:47:00,69.0,60.4,22.50,North,5,2.0,2.0,74,0.00,,,0.00,0,Wunderground v.1.15,2013-07-01 03:47:00,
2013-06-30 22:52:00,69.0,60.4,22.50,North,360,2.0,2.0,74,0.00,,,0.00,0,Wunderground v.1.15,2013-07-01 03:52:00,
2013-06-30 22:57:00,68.9,60.3,22.50,North,10,1.0,1.0,74,0.00,,,0.00,0,Wunderground v.1.15,2013-07-01 03:57:00,
2013-06-30 23:02:00,68.9,60.3,22.50,NNE,15,1.0,3.0,74,0.00,,,0.00,0,Wunderground v.1.15,2013-07-01 04:02:00,
2013-06-30 23:07:00,68.9,60.3,22.50,North,11,1.0,4.0,74,0.00,,,0.00,0,Wunderground v.1.15,2013-07-01 04:07:00,
2013-06-30 23:12:00,68.9,60.3,22.50,North,355,2.0,4.0,74,0.00,,,0.00,0,Wunderground v.1.15,2013-07-01 04:12:00,
2013-06-30 23:17:00,68.9,60.6,22.50,North,349,2.0,2.0,75,0.00,,,0.00,0,Wunderground v.1.15,2013-07-01 04:17:00,
2013-06-30 23:22:00,68.8,60.6,25.75,North,360,2.0,3.0,75,0.00,,,0.00,0,Wunderground v.1.15,2013-07-01 04:22:00,
2013-06-30 23:27:00,68.8,60.6,25.75,North,9,2.0,2.0,75,0.00,,,0.00,0,Wunderground v.1.15,2013-07-01 04:27:00,
2013-06-30 23:32:00,68.8,60.6,25.75,North,9,2.0,2.0,75,0.00,,,0.00,0,Wunderground v.1.15,2013-07-01 04:32:00,
2013-06-30 23:42:00,68.9,60.6,25.75,NNE,24,2.0,2.0,75,0.00,,,0.00,0,Wunderground v.1.15,2013-07-01 04:42:00,
2013-06-30 23:47:00,68.9,60.6,25.75,NNE,23,2.0,2.0,75,0.00,,,0.00,0,Wunderground v.1.15,2013-07-01 04:47:00,
2013-06-30 23:52:00,69.0,60.4,25.75,North,360,2.0,3.0,74,0.00,,,0.00,0,Wunderground v.1.15,2013-07-01 04:52:00,
2013-06-30 23:57:00,69.1,60.5,25.75,North,360,2.0,2.0,74,0.00,,,0.00,0,Wunderground v.1.15,2013-07-01 04:57:00,